User: anonymous   Login
Location: Vancouver
(49.2500°N, 123.1330°W)
Time: 22:31:23
(UTC-08:00)
Language:

deb Explorer IX - Orbit

View from above orbital plane
View from above orbital plane
View from above satellite
View from above satellite

Ground track
Ground track

The orbit data is extracted from the following two-line orbital elements,

1 00085U 61004C   14352.48698106  .00032425  00000-0  82436-2 0   904
2 00085 038.7698 125.2019 0433139 158.4618 203.4962 14.06164285646168
Epoch (UTC): 18 December 2014 11:41:15
Eccentricity: 0.0433139
inclination: 38.7698°
perigee height: 558 km
apogee height: 1186 km
right ascension of ascending node: 125.2019°
argument of perigee: 158.4618°
revolutions per day: 14.06164285
mean anomaly at epoch: 203.4962°
orbit number at epoch: 64616

The dashed part of the orbit path shows where the satellite is in the earth's shadow,  

DLR